Find Starlink 31716

NORAD ID: 59377 Int'l Des: 2024-062 Owner: SPXS Country: US Constellation: starlink operational
LEOCIRCULAR

Live Position

Loading 3D Globe...

About Starlink 31716

Description loading...

Upcoming Passes

Passes for default location (London). Set your location on the main map for personalized predictions.

Altitude History

Loading altitude history...

Two-Line Element Set

1 59377U 24062D 26121.83794463 -.00001076 00000-0 -24212-4 0 9992
2 59377 53.1626 320.1487 0001183 88.7228 271.3908 15.30188611118441
Epoch: May 1, 2026 • Age: 4 hours

Current Status

Altitude 493.7 km
Velocity 7.62 km/s
Sub-Earth Point -50.97°S, 19.22°W
Launch Date Apr 2, 2024
Age 2 years
Type internet

Technical Details

Classification Payload
Mass 730.00 kg
Dry Mass 700.00 kg
Total Mass 730.00 kg
Length 0.30 m
Diameter 4.10 m
Span 29.00 m
Shape Box + pan
Manufacturer SPXS
Bus Type Starlink V2M
Phase Status In Orbit
Owner/State SPXS/US

Most Searched